FW8147 Weather Reports


Display with metric or nautical units.
time (UTC)temp
F
wind
direction
speed
MPH
gust
MPH
rain 1hr
in
rain 24hr
in
rain mn
in
humidity
%
barometer
mb
20260906173626 100 224 1.0 2.0 0.00 0.00 0.00 41 1015.2
20260906173122 99 169 1.0 3.0 0.00 0.00 0.00 41 1015.4
20260906172621 99 60 4.0 7.0 0.00 0.00 0.00 42 1015.2
20260906172117 99 110 1.0 1.0 0.00 0.00 0.00 43 1015.3
20260906171616 99 93 2.0 6.0 0.00 0.00 0.00 42 1015.5
20260906171112 99 162 3.0 4.0 0.00 0.00 0.00 42 1015.5
20260906170608 98 155 1.0 6.0 0.00 0.00 0.00 44 1015.8
20260906165558 97 154 1.0 2.0 0.00 0.00 0.00 45 1015.7
20260906165053 97 164 1.0 4.0 0.00 0.00 0.00 45 1015.8
20260906164553 97 162 1.0 3.0 0.00 0.00 0.00 47 1015.7
20260906164048 96 71 2.0 4.0 0.00 0.00 0.00 46 1015.8
20260906163544 96 161 1.0 6.0 0.00 0.00 0.00 48 1016.1
20260906163039 98 147 1.0 2.0 0.00 0.00 0.00 44 1015.7
20260906162536 96 178 2.0 3.0 0.00 0.00 0.00 45 1015.8
20260906162031 95 135 2.0 6.0 0.00 0.00 0.00 48 1016.0
20260906161526 96 83 2.0 4.0 0.00 0.00 0.00 46 1015.7
20260906161025 96 167 1.0 3.0 0.00 0.00 0.00 48 1016.2
20260906160524 95 150 0.0 2.0 0.00 0.00 0.00 48 1016.0
20260906160023 95 178 2.0 3.0 0.00 0.00 0.00 48 1016.0
20260906155521 96 69 1.0 4.0 0.00 0.00 0.00 47 1015.8
20260906155017 95 174 1.0 2.0 0.00 0.00 0.00 47 1016.0
20260906154512 95 145 1.0 2.0 0.00 0.00 0.00 48 1016.1
20260906154010 94 149 0.0 4.0 0.00 0.00 0.00 48 1016.1
20260906153509 95 111 2.0 2.0 0.00 0.00 0.00 48 1015.8
20260906153005 93 125 0.0 3.0 0.00 0.00 0.00 49 1015.8
20260906152459 95 149 2.0 3.0 0.00 0.00 0.00 49 1015.8
20260906151958 94 128 1.0 2.0 0.00 0.00 0.00 50 1016.0
20260906151453 93 134 1.0 2.0 0.00 0.00 0.00 50 1015.6
20260906150949 93 145 1.0 3.0 0.00 0.00 0.00 50 1015.6
20260906150445 93 143 1.0 2.0 0.00 0.00 0.00 51 1015.6
20260906145944 94 148 0.0 2.0 0.00 0.00 0.00 50 1015.6
20260906145443 93 153 1.0 2.0 0.00 0.00 0.00 52 1015.8
20260906144932 92 149 0.0 2.0 0.00 0.00 0.00 55 1015.8
20260906144427 91 147 0.0 1.0 0.00 0.00 0.00 56 1015.7
20260906143923 91 156 0.0 2.0 0.00 0.00 0.00 55 1015.8
20260906143418 91 142 0.0 1.0 0.00 0.00 0.00 55 1015.5
20260906142914 91 150 2.0 2.0 0.00 0.00 0.00 56 1015.5
20260906142413 89 148 0.0 1.0 0.00 0.00 0.00 56 1015.6
20260906141914 89 141 1.0 3.0 0.00 0.00 0.00 58 1015.8
20260906141408 89 153 0.0 1.0 0.00 0.00 0.00 59 1015.6
20260906140908 88 159 1.0 2.0 0.00 0.00 0.00 60 1015.7
20260906140402 88 151 1.0 2.0 0.00 0.00 0.00 58 1015.6
20260906135901 87 180 1.0 2.0 0.00 0.00 0.00 60 1015.8
20260906135400 86 129 2.0 2.0 0.00 0.00 0.00 61 1015.5
20260906134855 85 147 1.0 2.0 0.00 0.00 0.00 63 1015.6
20260906134350 85 176 2.0 3.0 0.00 0.00 0.00 63 1015.3
20260906133846 84 122 1.0 2.0 0.00 0.00 0.00 64 1015.6
20260906133342 83 161 0.0 2.0 0.00 0.00 0.00 66 1015.5
20260906132837 83 141 2.0 3.0 0.00 0.00 0.00 66 1015.6
20260906132332 84 149 2.0 4.0 0.00 0.00 0.00 66 1015.6
20260906131828 84 152 0.0 1.0 0.00 0.00 0.00 67 1015.4
20260906131323 84 150 0.0 0.0 0.00 0.00 0.00 66 1015.3
20260906130819 85 150 0.0 0.0 0.00 0.00 0.00 64 1015.3
20260906130318 84 154 0.0 0.0 0.00 0.00 0.00 66 1015.2
20260906125817 82 154 0.0 0.0 0.00 0.00 0.00 68 1015.2
20260906125309 82 155 0.0 1.0 0.00 0.00 0.00 69 1015.0
20260906124804 82 153 0.0 0.0 0.00 0.00 0.00 68 1015.2
20260906124300 80 150 0.0 0.0 0.00 0.00 0.00 71 1015.1
20260906123758 79 162 1.0 2.0 0.00 0.00 0.00 71 1015.2
20260906123254 78 147 0.0 2.0 0.00 0.00 0.00 73 1015.0
20260906122753 78 152 1.0 1.0 0.00 0.00 0.00 73 1014.8
20260906122249 78 159 1.0 2.0 0.00 0.00 0.00 73 1014.9
20260906121745 77 150 2.0 3.0 0.00 0.00 0.00 74 1014.8
20260906121241 77 152 1.0 3.0 0.00 0.00 0.00 75 1014.7
20260906120737 76 156 2.0 2.0 0.00 0.00 0.00 75 1014.6
20260906120233 75 149 2.0 2.0 0.00 0.00 0.00 78 1014.9
20260906115729 74 156 0.0 0.0 0.00 0.00 0.00 81 1014.6
20260906115223 73 154 0.0 0.0 0.00 0.00 0.00 81 1014.6
20260906114723 73 154 0.0 0.0 0.00 0.00 0.00 82 1014.5
20260906114218 74 159 0.0 0.0 0.00 0.00 0.00 81 1014.5
20260906113713 74 159 0.0 0.0 0.00 0.00 0.00 80 1014.4
20260906113212 74 159 0.0 0.0 0.00 0.00 0.00 79 1014.4
20260906112707 75 159 0.0 0.0 0.00 0.00 0.00 79 1014.4
20260906112204 75 147 0.0 0.0 0.00 0.00 0.00 79 1014.5
20260906111703 75 128 0.0 1.0 0.00 0.00 0.00 79 1014.3
20260906111157 75 147 0.0 0.0 0.00 0.00 0.00 79 1014.4
20260906110652 75 151 0.0 0.0 0.00 0.00 0.00 78 1014.4
20260906110147 75 159 0.0 0.0 0.00 0.00 0.00 78 1014.4
20260906105642 76 151 0.0 0.0 0.00 0.00 0.00 78 1014.5
20260906105138 76 142 2.0 2.0 0.00 0.00 0.00 77 1014.3
20260906104637 76 148 1.0 2.0 0.00 0.00 0.00 77 1014.3
20260906104131 76 143 1.0 2.0 0.00 0.00 0.00 77 1014.3
20260906103629 76 158 0.0 1.0 0.00 0.00 0.00 77 1014.2
20260906103125 76 160 0.0 0.0 0.00 0.00 0.00 77 1014.3
20260906102619 76 162 0.0 1.0 0.00 0.00 0.00 77 1014.2
20260906102114 76 147 0.0 0.0 0.00 0.00 0.00 77 1014.1
20260906101608 76 127 0.0 0.0 0.00 0.00 0.00 77 1014.3
20260906101103 76 154 0.0 0.0 0.00 0.00 0.00 77 1014.0
20260906100558 75 153 0.0 0.0 0.00 0.00 0.00 78 1014.0
20260906100053 76 145 0.0 0.0 0.00 0.00 0.00 78 1014.1
20260906095553 75 151 0.0 0.0 0.00 0.00 0.00 78 1014.1
20260906095048 75 154 0.0 0.0 0.00 0.00 0.00 78 1014.1
20260906094547 76 149 0.0 0.0 0.00 0.00 0.00 78 1014.1
20260906094038 75 150 0.0 0.0 0.00 0.00 0.00 78 1014.1
20260906093534 75 150 0.0 0.0 0.00 0.00 0.00 78 1014.1
20260906093034 75 153 0.0 0.0 0.00 0.00 0.00 78 1014.0
20260906092529 75 157 0.0 0.0 0.00 0.00 0.00 78 1013.9
20260906092024 75 157 0.0 0.0 0.00 0.00 0.00 78 1014.0
20260906091520 75 158 0.0 0.0 0.00 0.00 0.00 79 1014.0
20260906091016 75 159 0.0 1.0 0.00 0.00 0.00 79 1013.9
20260906090516 74 153 0.0 0.0 0.00 0.00 0.00 81 1013.9
20260906090011 75 153 0.0 0.0 0.00 0.00 0.00 81 1014.0
20260906085510 75 148 0.0 0.0 0.00 0.00 0.00 80 1014.0
20260906085009 75 150 0.0 0.0 0.00 0.00 0.00 79 1013.9
20260906084504 76 150 0.0 0.0 0.00 0.00 0.00 78 1013.9
20260906083957 76 154 0.0 0.0 0.00 0.00 0.00 77 1013.8
20260906083454 77 154 0.0 0.0 0.00 0.00 0.00 75 1013.8
20260906082952 77 154 0.0 0.0 0.00 0.00 0.00 76 1013.7
20260906082448 77 159 0.0 0.0 0.00 0.00 0.00 76 1013.9
20260906081943 77 155 0.0 0.0 0.00 0.00 0.00 75 1013.8
20260906081438 78 159 0.0 0.0 0.00 0.00 0.00 74 1013.9
20260906080934 80 151 0.0 0.0 0.00 0.00 0.00 69 1014.0
20260906080431 80 153 1.0 1.0 0.00 0.00 0.00 68 1014.0
20260906075931 80 151 1.0 2.0 0.00 0.00 0.00 68 1014.0
20260906075425 80 155 1.0 2.0 0.00 0.00 0.00 68 1013.9
20260906074920 79 149 1.0 2.0 0.00 0.00 0.00 69 1014.0
20260906074415 79 158 0.0 1.0 0.00 0.00 0.00 70 1013.9
20260906073914 78 156 0.0 1.0 0.00 0.00 0.00 71 1013.8
20260906073409 77 157 0.0 0.0 0.00 0.00 0.00 73 1013.8
20260906072905 77 164 0.0 0.0 0.00 0.00 0.00 74 1014.0
20260906072400 78 165 0.0 0.0 0.00 0.00 0.00 74 1014.0
20260906071856 78 158 0.0 0.0 0.00 0.00 0.00 75 1014.0
20260906071351 78 155 0.0 0.0 0.00 0.00 0.00 75 1014.4
20260906070847 78 154 0.0 0.0 0.00 0.00 0.00 74 1014.0
20260906070343 78 134 0.0 0.0 0.00 0.00 0.00 74 1014.2
20260906065838 78 147 0.0 0.0 0.00 0.00 0.00 73 1014.2
20260906065333 78 155 0.0 0.0 0.00 0.00 0.00 74 1014.2
20260906064828 78 155 0.0 0.0 0.00 0.00 0.00 75 1014.2
20260906064324 78 155 0.0 0.0 0.00 0.00 0.00 74 1013.9
20260906063819 78 155 0.0 1.0 0.00 0.00 0.00 75 1014.2
20260906063315 78 157 0.0 0.0 0.00 0.00 0.00 75 1014.4
20260906062810 78 140 0.0 1.0 0.00 0.00 0.00 75 1014.3
20260906062309 78 132 0.0 1.0 0.00 0.00 0.00 75 1014.2
20260906061804 78 140 0.0 0.0 0.00 0.00 0.00 75 1014.2
20260906061301 78 154 0.0 0.0 0.00 0.00 0.00 75 1014.4
20260906060755 78 161 0.0 0.0 0.00 0.00 0.00 74 1014.2
20260906060253 78 163 0.0 0.0 0.00 0.00 0.00 74 1014.6
20260906055749 78 163 0.0 0.0 0.00 0.00 0.00 72 1014.4
20260906055243 79 163 0.0 0.0 0.00 0.00 0.00 71 1014.5
20260906054739 79 163 0.0 0.0 0.00 0.00 0.00 71 1014.4
20260906054234 79 163 0.0 0.0 0.00 0.00 0.00 70 1014.4
20260906053731 79 160 0.0 0.0 0.00 0.00 0.00 70 1014.4
20260906053226 80 160 0.0 0.0 0.00 0.00 0.00 70 1014.3
20260906052721 80 160 0.0 0.0 0.00 0.00 0.00 69 1014.4
20260906052217 80 160 0.0 0.0 0.00 0.00 0.00 69 1014.1
20260906051714 80 160 0.0 0.0 0.00 0.00 0.00 67 1014.4
20260906051213 81 160 0.0 0.0 0.00 0.00 0.00 66 1014.4
20260906050709 82 160 0.0 0.0 0.00 0.00 0.00 66 1014.1
20260906050204 82 156 0.0 1.0 0.00 0.00 0.00 65 1014.2
20260906045702 83 155 0.0 1.0 0.00 0.00 0.00 63 1014.2
20260906045157 83 154 0.0 1.0 0.00 0.00 0.00 63 1014.1
20260906044653 83 148 0.0 0.0 0.00 0.00 0.00 63 1014.0
20260906044148 83 151 0.0 1.0 0.00 0.00 0.00 62 1014.2
20260906043645 83 154 0.0 1.0 0.00 0.00 0.00 62 1014.3
20260906043140 84 145 0.0 0.0 0.00 0.00 0.00 62 1014.2
20260906042639 84 128 0.0 1.0 0.00 0.00 0.00 62 1014.4
20260906042134 84 148 0.0 1.0 0.00 0.00 0.00 62 1014.2
20260906041629 84 124 0.0 3.0 0.00 0.00 0.00 61 1014.0
20260906041124 84 124 1.0 2.0 0.00 0.00 0.00 61 1014.1
20260906040620 84 148 0.0 1.0 0.00 0.00 0.00 61 1014.3
20260906040115 84 147 0.0 2.0 0.00 0.00 0.00 61 1014.1
20260906035610 84 140 1.0 1.0 0.00 0.00 0.00 61 1014.0
20260906035105 84 116 1.0 1.0 0.00 0.00 0.00 61 1014.1
20260906034600 84 158 1.0 2.0 0.00 0.00 0.00 60 1014.1
20260906034054 85 142 1.0 2.0 0.00 0.00 0.00 60 1014.0
20260906033550 85 130 1.0 2.0 0.00 0.00 0.00 60 1013.8
20260906033045 85 149 0.0 2.0 0.00 0.00 0.00 59 1014.1
20260906032542 85 155 0.0 2.0 0.00 0.00 0.00 59 1013.9
20260906032042 86 142 2.0 2.0 0.00 0.00 0.00 58 1014.2
20260906031537 86 132 0.0 3.0 0.00 0.00 0.00 58 1014.2
20260906031027 85 148 1.0 2.0 0.00 0.00 0.00 58 1014.0
20260906030526 85 138 1.0 2.0 0.00 0.00 0.00 58 1013.9
20260906030021 86 142 1.0 2.0 0.00 0.00 0.00 57 1013.9
20260906025520 86 155 1.0 2.0 0.00 0.00 0.00 56 1013.8
20260906025018 86 151 1.0 2.0 0.00 0.00 0.00 56 1013.8
20260906024513 86 154 1.0 1.0 0.00 0.00 0.00 56 1013.8
20260906024008 87 164 1.0 1.0 0.00 0.00 0.00 55 1013.6
20260906023504 87 155 0.0 1.0 0.00 0.00 0.00 54 1013.6
20260906022959 87 150 0.0 1.0 0.00 0.00 0.00 54 1013.6
20260906022454 88 150 0.0 1.0 0.00 0.00 0.00 53 1013.5
20260906021949 88 147 0.0 1.0 0.00 0.00 0.00 52 1013.2
20260906021443 89 148 1.0 1.0 0.00 0.00 0.00 52 1013.5
20260906020938 89 150 1.0 3.0 0.00 0.00 0.00 51 1013.2
20260906020433 89 93 1.0 3.0 0.00 0.00 0.00 50 1013.0
20260906015932 89 133 1.0 2.0 0.00 0.00 0.00 50 1013.1
20260906015427 89 39 2.0 4.0 0.00 0.00 0.00 50 1013.4
20260906014927 88 43 4.0 7.0 0.00 0.00 0.00 51 1013.0
20260906014426 88 146 0.0 1.0 0.00 0.00 0.00 53 1013.1
20260906013922 88 120 1.0 1.0 0.00 0.00 0.00 52 1012.9
20260906013418 89 144 0.0 1.0 0.00 0.00 0.00 51 1012.8
20260906012914 89 139 0.0 1.0 0.00 0.00 0.00 50 1012.9
20260906012408 89 139 1.0 1.0 0.00 0.00 0.00 50 1012.8
20260906011908 89 116 0.0 0.0 0.00 0.00 0.00 50 1012.7
20260906011403 90 149 0.0 1.0 0.00 0.00 0.00 49 1012.5
20260906010858 90 148 0.0 1.0 0.00 0.00 0.00 49 1012.7
20260906010354 89 143 0.0 1.0 0.00 0.00 0.00 50 1012.9
20260906005850 89 142 0.0 2.0 0.00 0.00 0.00 52 1012.7
20260906005349 90 103 1.0 1.0 0.00 0.00 0.00 51 1012.6
20260906004848 91 153 0.0 0.0 0.00 0.00 0.00 48 1012.5
20260906004347 92 154 0.0 1.0 0.00 0.00 0.00 46 1012.7
20260906003842 93 156 0.0 0.0 0.00 0.00 0.00 45 1012.4
20260906003337 93 159 0.0 0.0 0.00 0.00 0.00 44 1012.6
20260906002833 94 159 0.0 1.0 0.00 0.00 0.00 43 1012.7
20260906002332 95 156 0.0 0.0 0.00 0.00 0.00 42 1012.8
20260906001828 95 158 0.0 0.0 0.00 0.00 0.00 41 1012.6
20260906001323 96 154 0.0 1.0 0.00 0.00 0.00 40 1012.6
20260906000818 96 139 1.0 1.0 0.00 0.00 0.00 40 1012.7
20260906000313 97 161 1.0 2.0 0.00 0.00 0.00 39 1012.6
20260905235808 97 163 0.0 1.0 0.00 0.00 0.00 39 1012.8
20260905235308 97 157 0.0 3.0 0.00 0.00 0.00 40 1012.5
20260905234804 98 161 0.0 1.0 0.00 0.00 0.00 39 1012.6
20260905234259 98 168 4.0 4.0 0.00 0.00 0.00 38 1012.6
20260905233754 98 159 0.0 0.0 0.00 0.00 0.00 38 1012.4
20260905233254 98 161 0.0 1.0 0.00 0.00 0.00 39 1012.6
20260905232753 98 132 2.0 2.0 0.00 0.00 0.00 39 1012.4
20260905232249 98 148 0.0 2.0 0.00 0.00 0.00 40 1012.6
20260905231745 98 143 1.0 2.0 0.00 0.00 0.00 39 1012.6
20260905231240 99 95 1.0 3.0 0.00 0.00 0.00 38 1012.5
20260905230736 99 151 1.0 6.0 0.00 0.00 0.00 38 1012.6
20260905230233 99 168 2.0 3.0 0.00 0.00 0.00 37 1012.7
20260905225733 99 153 1.0 2.0 0.00 0.00 0.00 37 1012.3
20260905225229 100 164 0.0 1.0 0.00 0.00 0.00 36 1012.4
20260905224727 99 160 0.0 2.0 0.00 0.00 0.00 36 1012.4
20260905224223 99 147 0.0 2.0 0.00 0.00 0.00 37 1012.4
20260905223719 99 135 1.0 3.0 0.00 0.00 0.00 37 1012.5
20260905223216 99 167 1.0 3.0 0.00 0.00 0.00 37 1012.5
20260905222712 100 166 0.0 2.0 0.00 0.00 0.00 38 1012.4
20260905222210 99 169 0.0 3.0 0.00 0.00 0.00 37 1012.5
20260905221707 100 84 4.0 6.0 0.00 0.00 0.00 37 1012.6
20260905221203 100 193 4.0 4.0 0.00 0.00 0.00 38 1012.6
20260905220659 100 155 1.0 2.0 0.00 0.00 0.00 38 1012.6
20260905220155 100 167 0.0 4.0 0.00 0.00 0.00 38 1012.4
20260905215649 100 149 0.0 3.0 0.00 0.00 0.00 39 1012.5
20260905215144 100 115 2.0 4.0 0.00 0.00 0.00 37 1012.5
20260905214641 99 58 3.0 4.0 0.00 0.00 0.00 38 1012.8
20260905214140 100 200 2.0 3.0 0.00 0.00 0.00 38 1012.6
20260905213636 99 221 1.0 4.0 0.00 0.00 0.00 39 1012.6
20260905213131 99 321 5.0 7.0 0.00 0.00 0.00 38 1012.7
20260905212626 100 69 2.0 4.0 0.00 0.00 0.00 38 1012.7
20260905212121 100 41 3.0 4.0 0.00 0.00 0.00 39 1012.9
20260905211615 101 45 2.0 6.0 0.00 0.00 0.00 37 1013.0
20260905211111 101 163 1.0 2.0 0.00 0.00 0.00 37 1013.0
20260905210607 101 157 1.0 7.0 0.00 0.00 0.00 37 1013.2
20260905210101 101 171 0.0 2.0 0.00 0.00 0.00 36 1013.2
20260905205600 101 168 1.0 2.0 0.00 0.00 0.00 37 1013.5
20260905205055 100 179 1.0 8.0 0.00 0.00 0.00 39 1013.4
20260905204549 99 179 1.0 2.0 0.00 0.00 0.00 38 1013.6
20260905204045 98 164 1.0 4.0 0.00 0.00 0.00 40 1013.7
20260905203544 96 131 0.0 3.0 0.00 0.00 0.00 41 1013.7
20260905203040 97 154 2.0 4.0 0.00 0.00 0.00 41 1013.7
20260905202535 98 172 1.0 2.0 0.00 0.00 0.00 41 1014.0
20260905202030 98 111 2.0 3.0 0.00 0.00 0.00 40 1013.8
20260905201526 100 161 1.0 3.0 0.00 0.00 0.00 40 1013.8
20260905201025 100 108 4.0 6.0 0.00 0.00 0.00 38 1014.1
20260905200521 100 37 3.0 14.0 0.00 0.00 0.00 39 1014.2
20260905200020 101 141 1.0 2.0 0.00 0.00 0.00 38 1014.0
20260905195514 100 174 1.0 2.0 0.00 0.00 0.00 38 1014.0
20260905195009 100 118 2.0 6.0 0.00 0.00 0.00 38 1014.2
20260905194504 99 134 1.0 6.0 0.00 0.00 0.00 40 1014.3
20260905194004 97 97 1.0 3.0 0.00 0.00 0.00 41 1014.3
20260905193503 96 218 1.0 4.0 0.00 0.00 0.00 43 1014.4
20260905192959 97 169 1.0 4.0 0.00 0.00 0.00 42 1014.4
20260905192454 96 113 2.0 3.0 0.00 0.00 0.00 42 1014.5
20260905191951 97 148 0.0 3.0 0.00 0.00 0.00 43 1014.6
20260905191449 96 32 4.0 7.0 0.00 0.00 0.00 44 1014.7
20260905190943 97 18 3.0 4.0 0.00 0.00 0.00 42 1014.6
20260905190441 99 164 4.0 6.0 0.00 0.00 0.00 42 1014.7
20260905185940 101 51 3.0 7.0 0.00 0.00 0.00 41 1014.7
20260905185436 101 136 2.0 2.0 0.00 0.00 0.00 42 1015.0
20260905184934 100 177 1.0 3.0 0.00 0.00 0.00 40 1015.2
20260905184429 98 84 4.0 6.0 0.00 0.00 0.00 39 1015.3
20260905183928 99 276 5.0 7.0 0.00 0.00 0.00 42 1015.1
20260905183422 99 114 1.0 4.0 0.00 0.00 0.00 41 1015.1
20260905182918 98 114 1.0 3.0 0.00 0.00 0.00 42 1015.3
20260905182416 98 79 4.0 6.0 0.00 0.00 0.00 41 1015.2
20260905181912 98 147 1.0 4.0 0.00 0.00 0.00 42 1015.4
20260905181406 98 164 1.0 6.0 0.00 0.00 0.00 46 1015.6
20260905180905 99 165 1.0 2.0 0.00 0.00 0.00 43 1015.5
20260905180400 97 129 3.0 4.0 0.00 0.00 0.00 43 1015.6
20260905175855 96 17 6.0 9.0 0.00 0.00 0.00 45 1016.0
20260905175355 97 125 1.0 3.0 0.00 0.00 0.00 45 1016.0
20260905174850 98 208 5.0 7.0 0.00 0.00 0.00 45 1016.0
20260905174346 96 182 1.0 1.0 0.00 0.00 0.00 45 1015.8
20260905173842 97 344 5.0 6.0 0.00 0.00 0.00 45 1016.2